Location: Kumla
(59.1265°N, 15.1401°E)
Time: 17:38:25
(UTC+01:00)

A-11 Canister half - Pass Details

Date: 07 December 2023
Orbit: 1512 x 1687 km, 47.2° (Epoch: 25 February)

Event Time Altitude Azimuth Distance (km) Brightness Sun altitude
Rises 21:46:06 0° 176° (S) 4,711 - -47.4°
Reaches altitude 10° 21:51:38 10° 150° (SSE) 3,771 - -47.8°
Maximum altitude 21:55:08 13° 128° (SE) 3,597 - -48.2°
Drops below altitude 10° 21:58:40 10° 106° (ESE) 3,829 - -48.5°
Sets 22:04:21 0° 80° (E) 4,862 - -48.9°
